Total_Precipitation_Accumulation
0.00 0.05 0.13 0.18 0.28 0.13 0.00 0.00 0.00 0.00 0.00 0.00 0.00 0.00 0.00 0.00 0.04 0.22 0.07 0.00 0.00 0.01 0.01 0.06 0.11 0.09 0.06 0.08 0.16 0.25 0.29 0.34 0.39 0.41 0.41 0.18 0.08 0.08 0.09 0.12 0.15 0.16 0.12 0.12 0.18 0.25 0.23 0.20 0.22
0.02 0.08 0.24 0.37 0.33 0.03 0.00 0.00 0.00 0.00 0.00 0.00 0.00 0.00 0.00 0.00 0.00 0.01 0.00 0.02 0.01 0.01 0.05 0.13 0.17 0.14 0.10 0.12 0.22 0.30 0.36 0.42 0.51 0.50 0.35 0.11 0.06 0.09 0.12 0.16 0.20 0.15 0.08 0.08 0.12 0.18 0.19 0.17 0.21
0.02 0.06 0.25 0.42 0.11 0.00 0.00 0.00 0.00 0.00 0.00 0.00 0.00 0.00 0.00 0.00 0.00 0.00 0.00 0.00 0.00 0.02 0.10 0.22 0.23 0.19 0.17 0.18 0.28 0.40 0.46 0.45 0.52 0.48 0.25 0.11 0.08 0.10 0.15 0.21 0.17 0.09 0.06 0.05 0.06 0.10 0.11 0.12 0.14
0.05 0.14 0.30 0.22 0.02 0.00 0.00 0.00 0.00 0.00 0.00 0.00 0.00 0.00 0.00 0.00 0.00 0.00 0.00 0.00 0.01 0.02 0.07 0.15 0.21 0.21 0.20 0.25 0.35 0.39 0.36 0.37 0.46 0.40 0.25 0.13 0.14 0.15 0.17 0.14 0.08 0.04 0.04 0.03 0.03 0.06 0.07 0.08 0.09
0.06 0.25 0.32 0.11 0.01 0.00 0.00 0.00 0.00 0.00 0.00 0.00 0.00 0.00 0.00 0.00 0.00 0.00 0.00 0.00 0.01 0.01 0.02 0.07 0.17 0.16 0.17 0.24 0.33 0.36 0.30 0.36 0.42 0.40 0.32 0.17 0.17 0.18 0.19 0.10 0.04 0.02 0.02 0.03 0.02 0.03 0.04 0.05 0.07
0.20 0.39 0.39 0.13 0.01 0.00 0.00 0.00 0.00 0.00 0.00 0.00 0.00 0.00 0.01 0.00 0.00 0.00 0.00 0.01 0.01 0.01 0.01 0.04 0.12 0.13 0.14 0.21 0.28 0.31 0.31 0.39 0.41 0.33 0.26 0.24 0.17 0.17 0.13 0.07 0.03 0.01 0.03 0.05 0.02 0.01 0.02 0.04 0.08
0.38 0.51 0.43 0.15 0.02 0.00 0.00 0.00 0.00 0.00 0.00 0.00 0.00 0.00 0.01 0.01 0.00 0.00 0.00 0.01 0.01 0.01 0.01 0.03 0.05 0.07 0.12 0.19 0.23 0.27 0.32 0.40 0.40 0.26 0.21 0.25 0.15 0.10 0.07 0.03 0.01 0.01 0.02 0.04 0.02 0.01 0.03 0.06 0.10
0.23 0.43 0.50 0.22 0.03 0.00 0.00 0.00 0.00 0.00 0.00 0.00 0.00 0.00 0.01 0.01 0.00 0.00 0.00 0.01 0.01 0.02 0.03 0.02 0.03 0.06 0.10 0.15 0.19 0.21 0.23 0.32 0.31 0.21 0.20 0.22 0.13 0.08 0.04 0.01 0.00 0.01 0.02 0.04 0.02 0.02 0.04 0.06 0.09
0.17 0.25 0.32 0.24 0.07 0.02 0.00 0.00 0.00 0.00 0.00 0.00 0.00 0.00 0.00 0.00 0.00 0.00 0.01 0.01 0.03 0.04 0.07 0.05 0.03 0.03 0.08 0.17 0.20 0.25 0.28 0.32 0.29 0.23 0.21 0.15 0.11 0.09 0.05 0.02 0.01 0.02 0.05 0.06 0.03 0.03 0.04 0.04 0.05
0.25 0.26 0.21 0.15 0.07 0.03 0.00 0.00 0.00 0.00 0.00 0.00 0.00 0.00 0.00 0.00 0.00 0.00 0.00 0.00 0.02 0.04 0.08 0.08 0.07 0.03 0.02 0.09 0.24 0.35 0.33 0.25 0.23 0.26 0.20 0.17 0.14 0.14 0.05 0.06 0.07 0.03 0.05 0.06 0.04 0.04 0.02 0.00 0.01
0.22 0.18 0.15 0.12 0.06 0.02 0.01 0.00 0.00 0.00 0.00 0.00 0.00 0.00 0.00 0.00 0.00 0.00 0.00 0.00 0.01 0.03 0.05 0.05 0.03 0.02 0.02 0.08 0.20 0.32 0.39 0.38 0.41 0.30 0.26 0.19 0.11 0.05 0.03 0.05 0.08 0.05 0.06 0.04 0.04 0.03 0.02 0.02 0.01
0.18 0.10 0.12 0.09 0.05 0.03 0.01 0.00 0.00 0.01 0.01 0.00 0.00 0.00 0.00 0.00 0.00 0.00 0.00 0.00 0.00 0.02 0.02 0.03 0.04 0.04 0.03 0.02 0.08 0.14 0.18 0.22 0.24 0.22 0.16 0.13 0.08 0.05 0.04 0.05 0.10 0.08 0.03 0.03 0.05 0.04 0.04 0.04 0.01
0.13 0.06 0.05 0.06 0.04 0.03 0.02 0.01 0.01 0.02 0.01 0.00 0.00 0.00 0.00 0.00 0.00 0.01 0.01 0.01 0.01 0.02 0.03 0.04 0.05 0.06 0.07 0.03 0.03 0.04 0.06 0.10 0.17 0.23 0.14 0.07 0.04 0.05 0.07 0.08 0.14 0.10 0.04 0.05 0.08 0.03 0.03 0.05 0.02
0.13 0.07 0.07 0.07 0.06 0.04 0.03 0.02 0.02 0.02 0.01 0.00 0.00 0.00 0.00 0.01 0.01 0.02 0.02 0.02 0.02 0.08 0.14 0.15 0.14 0.14 0.10 0.06 0.05 0.06 0.04 0.07 0.12 0.14 0.10 0.05 0.02 0.03 0.07 0.06 0.08 0.05 0.06 0.08 0.04 0.04 0.05 0.06 0.01
0.07 0.07 0.07 0.05 0.04 0.03 0.02 0.02 0.03 0.02 0.01 0.01 0.00 0.00 0.01 0.01 0.02 0.02 0.02 0.03 0.04 0.09 0.18 0.26 0.24 0.23 0.16 0.11 0.09 0.10 0.06 0.05 0.09 0.14 0.11 0.07 0.04 0.05 0.09 0.06 0.05 0.06 0.08 0.07 0.07 0.10 0.07 0.07 0.02
0.07 0.07 0.06 0.04 0.03 0.02 0.03 0.05 0.07 0.07 0.05 0.04 0.02 0.01 0.01 0.02 0.02 0.02 0.03 0.05 0.05 0.08 0.18 0.26 0.26 0.29 0.24 0.18 0.12 0.14 0.10 0.09 0.13 0.15 0.16 0.14 0.09 0.06 0.13 0.15 0.11 0.14 0.15 0.11 0.10 0.07 0.06 0.08 0.05
0.06 0.07 0.05 0.07 0.08 0.07 0.07 0.08 0.10 0.11 0.10 0.08 0.06 0.04 0.03 0.03 0.04 0.04 0.04 0.05 0.04 0.08 0.14 0.16 0.21 0.39 0.37 0.28 0.31 0.30 0.25 0.27 0.29 0.29 0.32 0.30 0.22 0.20 0.26 0.32 0.25 0.19 0.23 0.20 0.14 0.10 0.13 0.09 0.09
0.14 0.09 0.09 0.10 0.11 0.10 0.11 0.11 0.12 0.14 0.11 0.09 0.08 0.07 0.05 0.04 0.05 0.07 0.07 0.07 0.06 0.10 0.14 0.17 0.23 0.32 0.44 0.57 0.58 0.58 0.56 0.54 0.57 0.60 0.60 0.47 0.42 0.41 0.47 0.53 0.47 0.36 0.36 0.36 0.25 0.24 0.23 0.21 0.19
0.14 0.10 0.10 0.13 0.12 0.10 0.10 0.10 0.10 0.11 0.11 0.10 0.08 0.07 0.05 0.05 0.06 0.06 0.06 0.07 0.09 0.12 0.14 0.17 0.30 0.41 0.54 0.64 0.72 0.86 0.95 0.97 0.95 0.94 0.92 0.78 0.62 0.62 0.70 0.65 0.73 0.69 0.62 0.63 0.52 0.54 0.51 0.37 0.22
0.09 0.10 0.09 0.10 0.09 0.08 0.07 0.06 0.06 0.06 0.07 0.07 0.07 0.06 0.05 0.04 0.04 0.04 0.05 0.08 0.09 0.09 0.12 0.17 0.27 0.46 0.63 0.82 0.98 1.06 1.18 1.21 1.17 1.18 1.12 1.09 0.97 0.91 0.83 0.82 0.93 0.89 0.94 1.05 0.90 0.88 0.82 0.59 0.36
0.08 0.09 0.09 0.08 0.07 0.05 0.04 0.04 0.03 0.03 0.04 0.04 0.04 0.04 0.04 0.04 0.04 0.03 0.03 0.04 0.05 0.07 0.09 0.15 0.24 0.42 0.67 0.94 1.11 1.16 1.23 1.37 1.39 1.28 1.20 1.18 1.21 1.23 1.11 1.03 1.07 1.02 1.03 1.21 1.25 1.15 1.06 0.93 0.66
0.10 0.08 0.08 0.07 0.07 0.06 0.05 0.07 0.05 0.05 0.05 0.04 0.03 0.04 0.03 0.03 0.02 0.02 0.02 0.02 0.04 0.06 0.09 0.12 0.26 0.39 0.58 0.79 1.00 1.13 1.25 1.46 1.48 1.35 1.21 1.13 1.17 1.24 1.21 1.16 1.16 1.08 1.00 1.09 1.20 1.20 1.22 1.24 1.01
0.05 0.04 0.05 0.06 0.08 0.07 0.05 0.09 0.09 0.06 0.09 0.08 0.06 0.05 0.03 0.02 0.03 0.03 0.04 0.05 0.07 0.08 0.11 0.17 0.30 0.43 0.61 0.81 1.02 1.21 1.29 1.34 1.37 1.24 1.11 1.03 1.05 1.06 1.03 1.09 1.16 1.10 1.01 1.02 1.16 1.25 1.35 1.27 1.17
0.01 0.02 0.04 0.04 0.05 0.05 0.04 0.09 0.15 0.13 0.10 0.08 0.07 0.06 0.04 0.03 0.06 0.08 0.12 0.13 0.13 0.15 0.17 0.25 0.39 0.58 0.73 0.82 0.92 0.98 1.08 1.22 1.23 1.20 1.13 1.11 1.07 0.95 0.86 0.89 0.96 1.01 0.99 0.97 1.03 1.14 1.22 1.26 1.28
0.01 0.05 0.09 0.10 0.12 0.10 0.07 0.15 0.23 0.17 0.12 0.11 0.10 0.08 0.07 0.09 0.15 0.20 0.25 0.27 0.27 0.29 0.34 0.42 0.49 0.57 0.61 0.61 0.66 0.75 0.83 0.91 0.93 0.96 1.05 1.08 1.09 1.00 0.90 0.80 0.85 0.92 0.93 0.96 1.05 1.04 1.03 1.13 1.20
0.01 0.04 0.12 0.15 0.17 0.17 0.18 0.30 0.34 0.27 0.19 0.15 0.12 0.10 0.12 0.18 0.27 0.38 0.47 0.51 0.48 0.45 0.46 0.42 0.41 0.42 0.43 0.45 0.49 0.54 0.57 0.61 0.62 0.60 0.69 0.79 0.78 0.72 0.66 0.66 0.74 0.85 0.89 0.91 0.96 0.99 0.99 1.00 1.01
0.02 0.03 0.06 0.14 0.14 0.17 0.25 0.39 0.39 0.27 0.19 0.16 0.16 0.16 0.21 0.32 0.44 0.57 0.68 0.72 0.69 0.58 0.47 0.43 0.39 0.39 0.36 0.37 0.40 0.42 0.43 0.44 0.41 0.38 0.35 0.38 0.42 0.41 0.39 0.44 0.54 0.64 0.71 0.78 0.82 0.86 0.91 0.91 0.89
0.02 0.04 0.10 0.21 0.31 0.32 0.33 0.44 0.47 0.37 0.26 0.25 0.28 0.32 0.40 0.52 0.60 0.71 0.79 0.77 0.76 0.77 0.65 0.50 0.40 0.39 0.41 0.48 0.44 0.37 0.32 0.29 0.27 0.27 0.30 0.28 0.32 0.35 0.34 0.35 0.39 0.45 0.54 0.64 0.69 0.73 0.79 0.74 0.70
0.09 0.13 0.20 0.31 0.39 0.51 0.63 0.75 0.61 0.47 0.45 0.42 0.42 0.54 0.64 0.70 0.74 0.77 0.84 0.81 0.68 0.64 0.61 0.55 0.45 0.42 0.42 0.50 0.50 0.38 0.29 0.28 0.30 0.28 0.27 0.31 0.38 0.40 0.30 0.30 0.38 0.38 0.40 0.47 0.57 0.70 0.80 0.74 0.69
0.23 0.35 0.44 0.61 0.63 0.60 0.84 1.00 0.73 0.57 0.58 0.58 0.54 0.53 0.55 0.67 0.75 0.79 0.85 0.78 0.63 0.55 0.46 0.48 0.49 0.47 0.48 0.50 0.48 0.40 0.33 0.33 0.39 0.38 0.27 0.26 0.28 0.26 0.24 0.27 0.30 0.31 0.36 0.42 0.51 0.62 0.69 0.70 0.64